Location: Winnipeg
(49.8830°N, 97.1670°W)
Time: 03:13:59
(UTC-06:00)

ISS - Pass Details

Date: 26 January 2021
Orbit: 417 x 422 km, 51.6° (Epoch: 07 March)

Event Time Altitude Azimuth Distance (km) Brightness Sun altitude
Rises 19:32:01 0° 276° (W) 2,374 1.5 -22.1°
Reaches altitude 10° 19:34:09 10° 280° (W) 1,510 0.1 -22.4°
Enters shadow 19:36:45 46° 306° (NW) 579 -2.8 -22.8°
